Location: Estes Park
(40.3770°N, 105.5210°W)
Time: 17:07:11
(UTC-06:00)

Envisat - Pass Details

Date: 10 October 2017
Orbit: 764 x 766 km, 98.2° (Epoch: 21 October)

Event Time Altitude Azimuth Distance (km) Brightness Sun altitude
Exits shadow 20:47:54 66° 7° (N) 830 3.1 -27.1°
Drops below altitude 10° 20:52:19 10° 349° (N) 2,305 5.8 -27.9°
Sets 20:54:37 0° 349° (NNW) 3,235 6.6 -28.3°
